Regional Weather Roundup
Issued by NWS

Home | Current Version | Previous Version | Graphics & Text | Print | Product List | Glossary On
Versions: 1 2 3 4 5 6 7 8 9 10 11 12 13 14 15 16 17 18 19 20 21 22 23 24 25 26 27 28 29 30 31 32 33 34 35 36 37 38 39 40 41 42 43 44 45 46 47 48 49 50
000
ASUS45 KBOU 282107
RWRCO

WEATHER ROUNDUP FOR COLORADO
NATIONAL WEATHER SERVICE DENVER/BOULDER CO
200 PM MST SUN DEC 28 2014

NOTE: "FAIR" INDICATES FEW OR NO CLOUDS BELOW 12000 FEET WITH NO
SIGNIFICANT WEATHER AND/OR OBSTRUCTIONS TO VISIBILITY.

COZ001>005-013-030-031-282200-
...NORTHWEST COLORADO...

CITY           SKY/WX    TMP DP  RH WIND       PRES   REMARKS
CRAIG          CLOUDY    21  16  81 E7        29.94F WCI  12
HAYDEN         CLOUDY    18  12  79 E6        29.92F WCI   9
MEEKER         CLOUDY    26  12  55 S15       29.95F WCI  14
MOUNT WERNER   NOT AVBL
STEAMBOAT SPGS CLOUDY    13   9  85 CALM      29.92S VSB 1
WALDEN         CLOUDY    18   9  68 S9        29.84F WCI   6
$$

COZ006>008-011-282200-
...WEST CENTRAL VALLEYS...

CITY           SKY/WX    TMP DP  RH WIND       PRES   REMARKS
GRAND JUNCTION PTSUNNY   28  13  53 N3        30.06F
MONTROSE       PTSUNNY   31  11  43 MISG      30.04F
EAGLE          CLOUDY    28  21  74 CALM      29.99F
RIFLE          CLOUDY    22  13  68 NE5       30.05F WCI  16
DELTA          SUNNY     35   9  34 CALM      30.05F
NUCLA          MOSUNNY   32   9  37 N5        30.07F WCI  27
$$

COZ017>023-064>068-282200-
...SOUTHWEST COLORADO...

CITY           SKY/WX    TMP DP  RH WIND       PRES   REMARKS
DURANGO        SUNNY     24  12  60 E5        30.06F WCI  18
CORTEZ         SUNNY     32   9  38 S3        30.08F
PAGOSA SPRINGS SUNNY     23   9  56 CALM      30.03F
TELLURIDE      MOSUNNY   27   8  44 W7        29.99S WCI  19
WOLF CREEK PAS SUNNY      9   5  85 MISG      29.89F
$$

COZ009-010-012-014-032>034-037-058>063-282200-
...CENTRAL COLORADO...

CITY           SKY/WX    TMP DP  RH WIND       PRES   REMARKS
ASPEN          LGT SNOW  17  12  80 N7        29.93S WCI   8
BUENA VISTA    PTSUNNY   25   8  49 W20G25    29.88R WCI  11
COPPER MTN     SNOW       9   1  72 W13G18    29.78S VSB 1/2 WCI  -7
BERTHOUD PASS  NOT AVBL
COTTONWOOD PAS CLOUDY    19   9  63 N9G20     29.83S HAZE    WCI   9
GUNNISON       CLOUDY     3 -22  30 SE3       30.04F
KREMMLING      LGT SNOW  18  12  79 E5        29.92F VSB 1   WCI  11
LEADVILLE      LGT SNOW  13   5  70 NW13      29.82F WCI  -2
SALIDA         PTSUNNY   30   8  39 W25G33    29.97S WCI  15
SUNLIGHT       LGT SNOW N/A N/A N/A CALM      29.86F
WILKERSON PASS MOSUNNY   19   5  53 SW7       29.82F WCI  10
$$

COZ069>075-282200-
...SAN LUIS VALLEY/SANGRE DE CRISTO MOUNTAINS...

CITY           SKY/WX    TMP DP  RH WIND       PRES   REMARKS
ALAMOSA        SUNNY     21   4  47 VRB3      29.97F
LA VETA PASS   NOT AVBL
SAGUACHE       CLOUDY    12   1  62 CALM      29.98F
$$

COZ035-036-038>040-282200-
...NORTHERN COLORADO FRONT RANGE...

CITY           SKY/WX    TMP DP  RH WIND       PRES   REMARKS
DENVER INTL AP MOSUNNY   37  11  34 CALM      29.82S
DMNS CITY PARK   N/A     39   9  29 NE5       29.82R
AURORA         MOSUNNY   38  11  33 NE2       29.82F
FRONT RANGE AP NOT AVBL
ERIE MUNI ARPT   N/A     28  18  65 MISG      29.83S
BOULDER MUN AP SUNNY     37  12  35 N10G20    29.81R
CENTENNIAL     MOSUNNY   36  16  44 N6        29.80F
BROOMFIELD     MOSUNNY   37  12  35 N12       29.80F
FORT COLLINS   SUNNY     21  12  68 N7        29.86S WCI  13
LONGMONT       SUNNY     30  15  53 N8        29.86R WCI  23
$$

COZ041-046-047-076>085-087-088-282200-
...PIKES PEAK/PALMER DIVIDE AND SOUTHERN FOOTHILLS...

CITY           SKY/WX    TMP DP  RH WIND       PRES   REMARKS
COLO. SPRINGS  MOSUNNY   43   5  20 SW8       29.81F
A. F. ACADEMY  SUNNY     40   8  26 W15       29.80S
ELLICOTT       NOT AVBL
FALCON         SUNNY     41   5  22 W14G24    29.80S
FORT CARSON    SUNNY     43  10  25 VRB6      29.79F
LIMON          SUNNY     35  14  42 N9        29.82F WCI  28
MONUMENT HILL  MOSUNNY   34  10  37 N6        29.79S WCI  29
TRINIDAD       SUNNY     31  13  47 SE6       29.85F WCI  25
$$

COZ042>045-048>051-090-091-282200-
...NORTHEAST COLORADO...

CITY           SKY/WX    TMP DP  RH WIND       PRES   REMARKS
GREELEY ARPT   SUNNY     19  10  68 N6        29.86S WCI  11
AKRON          PTSUNNY   22  14  71 NW3       29.85F
BURLINGTON     PTSUNNY   34  19  54 S9        29.87S WCI  27
WRAY           PTSUNNY   32  18  56 E3        29.91S
STERLING       PTSUNNY   21  14  73 CALM      29.89F
HOLYOKE        PTSUNNY   34  18  51 CALM      29.92R
FORT MORGAN    PTSUNNY   22  12  65 CALM      29.87F
$$

COZ086-089-092>099-282200-
...SOUTHEAST COLORADO...

CITY           SKY/WX    TMP DP  RH WIND       PRES   REMARKS
PUEBLO         SUNNY     48   8  19 W21       29.81F
LA JUNTA       SUNNY     35  19  52 CALM      29.86F
LAMAR          SUNNY     37  18  46 VRB3      29.88F
SPRINGFIELD      N/A     45  10  24 S10       29.86F
$$



USA.gov is the U.S. government's official web portal to all federal, state and local government web resources and services.